Location: Buckeye Ditch
(40.9104°N, 122.9517°W)
Time: 18:36:23
(UTC+00:00)

BlueWalker 3 - Pass Details

Date: 02 July 2024
Orbit: 480 x 491 km, 53.2° (Epoch: 23 July)

Event Time Altitude Azimuth Distance (km) Brightness Sun altitude
Rises 04:58:07 0° 313° (NW) 2,544 7.8 -11.3°
Reaches altitude 10° 05:00:55 10° 335° (NNW) 1,661 5.8 -11.7°
Maximum altitude 05:03:23 17° 16° (NNE) 1,304 4.4 -12.0°
Drops below altitude 10° 05:05:51 10° 58° (ENE) 1,656 4.4 -12.3°
Enters shadow 05:07:53 - 75° (ENE) 2,276 5.0 -12.6°
